Melbourne, FL

7:52 PM EST on December 07, 2016 (GMT -0500)
Melbourne International

Weather History for KMLB - May, 2013

Change the Weather History Date:

Tuesday, May 7, 2013

  Actual Average Record
Temperature  
Mean Temperature 68 °F 74 °F  
Max Temperature 81 °F 84 °F 91 °F (1952)
Min Temperature 55 °F 65 °F 53 °F (1992)
Degree Days  
Heating Degree Days 0 0  
Month to date heating degree days 0 0  
Since 1 July heating degree days 463 576  
Cooling Degree Days 3 10  
Month to date cooling degree days 49 63  
Year to date cooling degree days 583 438  
Growing Degree Days 18 (Base 50)    
Moisture  
Dew Point 53 °F    
Average Humidity 61    
Maximum Humidity 86    
Minimum Humidity 36    
Precipitation  
Precipitation 0.00 in 0.07 in 1.85 in (2012)
Month to date precipitation 1.58 0.46  
Year to date precipitation 10.52 10.67  
Sea Level Pressure  
Sea Level Pressure 30.01 in    
Wind  
Wind Speed 7 mph (WSW)    
Max Wind Speed 16 mph    
Max Gust Speed 22 mph    
Visibility 10 miles    
Events      
T = Trace of Precipitation, MM = Missing Value Source: NWS Daily Summary

Daily Weather History Graph

Daily Weather History Graph

Search for Another Location

Airport or City:

Trip Planner

Search our weather history database for the weather conditions in past years. The results will help you decide how hot, cold, wet, or windy it might be!

Date:

Astronomy

May. 07, 2013 Rise Set
Actual Time 6:37 AM EDT 8:00 PM EDT
Civil Twilight 6:12 AM EDT 8:26 PM EDT
Nautical Twilight 5:42 AM EDT 8:56 PM EDT
Astronomical Twilight 5:11 AM EDT 9:27 PM EDT
Moon 5:00 AM EDT (5/7) 6:07 PM EDT (5/7)
Length of Visible Light 14h 13m
Length of Day
13h 23m
Waning Crescent, 5% of the Moon is Illuminated
May 7
Waning Crescent
May 9
New
May 18
First Quarter
May 25
Full
May 31
Last Quarter

Hourly Weather History & Observations

Time (EDT) Temp. Heat Index Dew Point Humidity Pressure Visibility Wind Dir Wind Speed Gust Speed Precip Events Conditions
12:53 AM 60.1 °F - 52.0 °F 75% 30.01 in 10.0 mi West 6.9 mph - N/A   Clear
1:53 AM 57.9 °F - 52.0 °F 81% 29.99 in 10.0 mi West 5.8 mph - N/A   Clear
2:53 AM 57.0 °F - 52.0 °F 83% 29.99 in 10.0 mi WSW 4.6 mph - N/A   Clear
4:53 AM 57.0 °F - 52.0 °F 83% 29.99 in 10.0 mi SW 5.8 mph - N/A   Clear
5:53 AM 57.0 °F - 52.0 °F 83% 30.00 in 10.0 mi Calm Calm - N/A   Clear
6:53 AM 55.9 °F - 52.0 °F 87% 30.02 in 10.0 mi Calm Calm - N/A   Clear
7:53 AM 60.1 °F - 54.0 °F 80% 30.05 in 10.0 mi SSW 5.8 mph - N/A   Clear
8:53 AM 64.9 °F - 55.0 °F 70% 30.05 in 10.0 mi SW 3.5 mph - N/A   Clear
9:53 AM 69.1 °F - 52.0 °F 54% 30.05 in 10.0 mi WSW 8.1 mph - N/A   Partly Cloudy
10:53 AM 70.0 °F - 52.0 °F 53% 30.05 in 10.0 mi South 6.9 mph - N/A   Partly Cloudy
11:53 AM 73.9 °F - 54.0 °F 50% 30.04 in 10.0 mi West 11.5 mph 16.1 mph N/A   Partly Cloudy
12:53 PM 77.0 °F - 52.0 °F 42% 30.03 in 10.0 mi WSW 12.7 mph 18.4 mph N/A   Scattered Clouds
1:53 PM 77.0 °F - 52.0 °F 42% 30.01 in 10.0 mi WSW 12.7 mph 18.4 mph N/A   Mostly Cloudy
2:53 PM 79.0 °F - 52.0 °F 39% 29.99 in 10.0 mi SW 10.4 mph 19.6 mph N/A   Clear
3:53 PM 80.1 °F 79.9 °F 53.1 °F 39% 29.97 in 10.0 mi WSW 11.5 mph - N/A   Scattered Clouds
4:53 PM 81.0 °F - 52.0 °F 36% 29.97 in 10.0 mi SW 10.4 mph - N/A   Mostly Cloudy
5:53 PM 80.1 °F - 51.1 °F 36% 29.97 in 10.0 mi WSW 9.2 mph - N/A   Partly Cloudy
6:53 PM 78.1 °F - 53.1 °F 42% 29.97 in 10.0 mi West 11.5 mph - N/A   Partly Cloudy
7:53 PM 75.0 °F - 53.1 °F 46% 29.99 in 10.0 mi West 9.2 mph - N/A   Partly Cloudy
8:53 PM 71.1 °F - 55.0 °F 57% 30.02 in 10.0 mi West 5.8 mph - N/A   Clear
9:53 PM 69.1 °F - 55.0 °F 61% 30.04 in 10.0 mi West 4.6 mph - N/A   Clear
10:53 PM 66.0 °F - 55.0 °F 68% 30.06 in 10.0 mi West 5.8 mph - N/A   Clear
11:53 PM 66.0 °F - 57.0 °F 73% 30.06 in 10.0 mi Calm Calm - N/A   Clear